Regional Weather Roundup
Issued by NWS

Home | Current Version | Previous Version | Text Only | Print | Product List | Glossary On
Versions: 1 2 3 4 5 6 7 8 9 10 11 12 13 14 15 16 17 18 19 20 21 22 23 24 25 26 27 28
000
ASUS44 KJAN 230610
RWRMS

MISSISSIPPI HOURLY WEATHER ROUNDUP
NATIONAL WEATHER SERVICE JACKSON MS
100 AM CDT FRI JUN 23 2017

NOTE: "FAIR: INDICATES FEW OR NO CLOUDS BELOW 12,000 FEET WITH NO
SIGNIFICANT WEATHER AND/OR OBSTRUCTIONS TO VISIBILITY.

MSZ001>002-007>008-010>013-018>021-025>028-034>036-230700-
NORTHWEST MISSISSIPPI

CITY           SKY/WX    TMP DP  RH WIND       PRES   REMARKS
BATESVILLE     FAIR      77  72  84 S8        29.78S
CLARKSDALE       N/A     79  77  94 S18G24    29.73F
CLEVELAND        N/A     76  76 100 S22G28    29.73S
GREENWOOD      PTCLDY    78  73  84 S15       29.78S
6HR MIN TEMP:  77; 6HR MAX TEMP:  84; 6HR PCP:  0.02;

GREENVILLE     CLOUDY    77  72  84 S18G24    29.72R
6HR MIN TEMP:  76; 6HR MAX TEMP:  81; 6HR PCP: TRACE;

OXFORD         FAIR      73  73 100 SE9       29.82S
TUNICA           N/A     77  70  78 S14G23    29.74F
WINONA         MOCLDY    77  75  93 S12       29.81S
$$

MSZ003>006-009-014>017-022>024-029>033-037>039-230700-
NORTHEAST MISSISSIPPI

CITY           SKY/WX    TMP DP  RH WIND       PRES   REMARKS
COLUMBUS AFB   PTCLDY    77  77  99 S12       29.86R
6HR MIN TEMP:  77; 6HR MAX TEMP:  82;

CORINTH        MOCLDY    77  73  88 S8G15     29.83F
GOLDN TRIANGLE PTCLDY    75  70  83 S13G20    29.83R
STARKVILLE     FAIR      75  73  94 S8        29.87R
TUPELO         CLOUDY    78  73  84 SE10      29.84S
6HR MIN TEMP:  78; 6HR MAX TEMP:  82;

$$

MSZ040-058-230700-
CENTRAL MISSISSIPPI

CITY           SKY/WX    TMP DP  RH WIND       PRES   REMARKS
JACKSON INTL   MOCLDY    80  74  81 S16       29.83S
6HR MIN TEMP:  79; 6HR MAX TEMP:  84;

JACKSON HAWKNS MOCLDY    79  74  84 S14G21    29.83S
6HR MIN TEMP:  77; 6HR MAX TEMP:  84; 6HR PCP:  0.03;

MADISON        CLOUDY    77  72  83 S12G18    29.83R
MERIDIAN KEY   CLOUDY    78  75  90 S15       29.90R
6HR MIN TEMP:  77; 6HR MAX TEMP:  81;

MERIDIAN NAS   CLOUDY    78  71  79 S10G17    29.90S
6HR MIN TEMP:  78; 6HR MAX TEMP:  83;

RAYMOND        FAIR      77  73  88 S10G17    29.82R
VICKSBURG VKS  CLOUDY    79  73  83 S16       29.77S
$$

MSZ059>079-230700-
SOUTH MISSISSIPPI

CITY           SKY/WX    TMP DP  RH WIND       PRES   REMARKS
COLUMBIA       CLOUDY    79  75  89 S9        29.90S
HATTIESBURG    LGT RAIN  79  75  87 S8        29.89S
6HR MIN TEMP:  78; 6HR MAX TEMP:  84; 6HR PCP: TRACE;

LAUREL         CLOUDY    77  77 100 S9        29.90S
MCCOMB         CLOUDY    78  75  90 S9        29.87R
6HR MIN TEMP:  77; 6HR MAX TEMP:  81;

NATCHEZ        CLOUDY    78  75  90 S12       29.82S
6HR MIN TEMP:  77; 6HR MAX TEMP:  79;

PINE BELT      CLOUDY    77  72  83 S10       29.91S
6HR MIN TEMP:  77; 6HR MAX TEMP:  84;

$$

MSZ080>082-230700-
COASTAL MISSISSIPPI

CITY           SKY/WX    TMP DP  RH WIND       PRES   REMARKS
BILOXI         CLOUDY    81  77  89 S15G23    29.91S
6HR MIN TEMP:  77; 6HR MAX TEMP:  80; 6HR PCP:  0.41;

PASCAGOULA     CLOUDY    80  76  87 S8        29.92F
6HR MIN TEMP:  76; 6HR MAX TEMP:  81; 6HR PCP:  0.57;

GULFPORT       CLOUDY    80  78  94 S16G26    29.90F
6HR MIN TEMP:  78; 6HR MAX TEMP:  81; 6HR PCP:  0.06;

$$

LAZ007>009-015>016-023>026-230700-
NORTHEAST LOUISIANA

CITY           SKY/WX    TMP DP  RH WIND       PRES   REMARKS
BASTROP        CLOUDY    77  77  98 CALM      29.74R
TALLULAH/VBURG CLOUDY    78  73  84 S15G23    29.79R
6HR MIN TEMP:  77; 6HR MAX TEMP:  79;

VIDALIA        CLOUDY    79  76  89 S15G23    29.80S
$$




USA.gov is the U.S. government's official web portal to all federal, state and local government web resources and services.